Погода в Кагуле

Молдова     45°54′13″N   28°11′55″E
темп.,
°C
ветер,
м/с
пор.,
м/с
влажн.,
%
обл.,
%
осадки,
мм/ч
давл.,
гПа
погр.,
м
22 января, пт
пт2223:000ююз469140 0.0 1020115
02:000ююз369270 0.0 1019100
05:000ююз369171 0.0 101899
08:000ю499185 0.0 1018197
11:00+4ююз6117680 0.0 1018345
14:00+5ю5117286 0.0 1015457
17:00+3ю5108276 0.0 1014205
20:00+3ююз5138441 0.0 1014259
23 января, сб
сб2323:00+3ю5138332 0.0 1013270
02:00+2ю5138549 0.0 1012228
05:00+2ююз5128545 0.0 1012242
08:00+2ю5128728 0.0 1011224
11:00+6ю5107495 0.0 1010317
14:00+7ю597896 0.0 1008329
17:00+6ююв478862 0.0 1007114
20:00+7ююв6158780 0.0 1007360
24 января, вс
вс2423:00+8ююв81787100 0.0 1005561
02:00+8ю91885100 0.0 1004775
05:00+8ююв101791100 0.8 1001729
08:00+8ю91590100 2.4 1001587
11:00+9ююз10157260 0.0 1002853
14:00+11ююз8136134 0.0 10011036
17:00+8ю487333 0.0 1002155
20:00+7ююз498359 0.0 1003204
25 января, пн
пн2523:00+5ю510870 0.0 1004179
02:00+4ю478830 0.0 1004115
05:00+4юв348482 0.0 100282
08:00+6ююв6159581 0.0 1000393
11:00+8ююв101793100 1.1 996667
14:00+9ююв111889100 4.6 992827
17:00+8ю81580100 0.4 991863
20:00+3ююз132168100 0.4 993901
26 января, вт
вт2623:00+3юз10157967 0.1 995656
02:00+2юз8146866 0.1 997611
05:00+2юз9176198 0.0 9991062
08:00+2зюз7165899 0.0 1004783
11:00+4зсз10154170 0.0 10081314
14:00+5з8123735 0.0 10091529
17:00+3зюз49470 0.0 1011230
20:00+1зсз512490 0.0 1013299